Overview Statistics Trail Chart Weather Telemetry Raw packets
 

This is the latest recevied weather packets stored in our database for station/object OK1TBM-13. If no packets are shown the sender has not sent any weather packets the latest 10 day(s).

<< 88 89 90 91 92 93 94 >>
Time Temp. Humidity Pressure Rain* Wind** Luminosity Snow
1787843701 29.44° C 43% 1016.6 hPa 0 mm - 172 W/m² -
1787843407 30° C 41% 1016.6 hPa 0 mm - 296 W/m² -
1787843101 29.44° C 42% 1016.6 hPa 0 mm - 302 W/m² -
1787842801 28.89° C 42% 1016.6 hPa 0 mm - 318 W/m² -
1787842201 30° C 41% 1016.6 hPa 0 mm - 346 W/m² -
1787841901 30.56° C 41% 1016.6 hPa 0 mm - 370 W/m² -
1787841601 30.56° C 41% 1016.6 hPa 0 mm - 372 W/m² -
1787841301 30° C 41% 1016.6 hPa 0 mm - 399 W/m² -
1787841001 30.56° C 40% 1016.6 hPa 0 mm - 410 W/m² -
1787840402 29.44° C 41% 1016.6 hPa 0 mm - 447 W/m² -
1787840102 30° C 40% 1016.6 hPa 0 mm - 447 W/m² -
1787839802 30.56° C 40% 1016.6 hPa 0 mm - 465 W/m² -
1787839501 30.56° C 39% 1016.6 hPa 0 mm - 478 W/m² -
1787839208 30° C 41% 1016.6 hPa 0 mm - 466 W/m² -
1787838601 29.44° C 42% 1016.6 hPa 0 mm - 508 W/m² -
1787838301 30.56° C 41% 1016.9 hPa 0 mm - 543 W/m² -
1787838002 30.56° C 41% 1016.9 hPa 0 mm - 563 W/m² -
1787837702 30.56° C 40% 1016.9 hPa 0 mm - 542 W/m² -
1787837406 30.56° C 40% 1016.9 hPa 0 mm - 573 W/m² -
1787836801 31.67° C 39% 1016.9 hPa 0 mm - 601 W/m² -
1787836500 31.67° C 38% 1016.9 hPa 0 mm - 600 W/m² -
1787836208 31.67° C 39% 1016.6 hPa 0 mm - 621 W/m² -
1787835902 30° C 41% 1016.6 hPa 0 mm - 630 W/m² -
1787835606 30.56° C 39% 1016.9 hPa 0 mm - 639 W/m² -
1787835001 30.56° C 39% 1016.9 hPa 0 mm - 674 W/m² -

* Rain latest hour (hover to see other rain measurements)
** Current wind speed in m/s (hover to see current wind gust speed)